Location: City of Moscow
(46.7306°N, 116.9989°W)
Time: 23:52:07
(UTC+00:00)

Tiangong - Pass Details

Date: 18 February 2026
Orbit: 381 x 391 km, 41.5° (Epoch: 7 March)

Event Time Altitude Azimuth Distance (km) Brightness Sun altitude
Rises 03:26:26 0° 264° (W) 2,254 3.1 -22.9°
Reaches altitude 10° 03:28:52 10° 246° (WSW) 1,397 1.5 -23.3°
Enters shadow 03:30:26 17° 218° (SW) 1,038 0.3 -23.6°
